Klamath Falls, OR

4:20 PM PST on February 26, 2017 (GMT -0800)
Klamath Falls City Schools | | Change Station
Active Advisory: Winter Weather Advisory

Elev 4104 ft 42.22 °N, 121.75 °W | Updated 7 seconds ago

Snow
Snow
27.0 °F
Feels Like 27 °F
N
3.0
Wind Variable Wind from WSW
Gusts 25.0 mph

Today
High -- | Low -- °F
--% Chance of Precip.
Yesterday
High -- | Low -- °F
Precip. -- in
Pressure 29.65 in
Visibility 0.2 miles
Clouds Mostly Cloudy 600 ft
Overcast 1000 ft
Windchill 27 °F
Dew Point 27 °F
Humidity 100%
Rainfall 0.00 in
Snow Depth Not available.
6:46 AM 5:54 PM
New Moon, 0% visible
SPECI KLMT 270002Z 28018G23KT M1/4SM R32/1000V1400FT +SN FZFG BKN006 OVC010 M02/M02 A2965 RMK AO2 WSHFT 2348 P0000 T10221022
Pressure 29.65 in
Visibility 0.2 miles
Clouds Mostly Cloudy 600 ft
Overcast 1000 ft
Windchill 27 °F
Dew Point 27 °F
Humidity 100%
Rainfall 0.00 in
Snow Depth Not available.
6:46 AM 5:54 PM
New Moon, 0% visible
SPECI KLMT 270002Z 28018G23KT M1/4SM R32/1000V1400FT +SN FZFG BKN006 OVC010 M02/M02 A2965 RMK AO2 WSHFT 2348 P0000 T10221022

Get Your Daily Forecast Email!

Thanks for signing up!

Be on the lookout for a verification email in your inbox.

You'll start receiving the daily forecast at 8 AM.

×

10-Day Weather Forecast

Almanac

Astronomy

Feb. 26, 2017 Rise Set
Actual Time
Civil Twilight
Nautical Twilight
Astronomical Twilight
Moon
Length of Visible Light
Length of Day
Tomorrow will be .
, % of the Moon is Illuminated

Today's Extremes

State Highs State Lows

Community

WunderPhotos

Upload Photos

1,962,540 photos uploaded!

WunderBlog® & News

Nearby

Air Quality

  Air Quality AQ Index Pollutant
Not available.

Snow Depth

Station Depth Elevation

Earthquake Activity

City Distance Mag. Time & Date
Minimum magnitude displayed is 2.5.

Coastal Water Temperatures

Place Temperature

Stations

Nearby Weather Stations

Station Location Temp. Windchill Dew Point Humidity Wind Precip. Elev Updated Type
                   

Watches & Warnings

Winter Weather Advisory
Issued: 2:44 PM PST Feb. 26, 2017 – National Weather Service

... Winter Weather Advisory remains in effect until 4 am PST
Monday...

* snow accumulations: 3 to 6 inches.

* Timing: the highest snowfall rates are expected this afternoon.

* Locations include: Highway 97 at Modoc Point, and from Spring
Creek to Crescent.

* Impacts: roads are expected to become snow covered in heavier
snow showers. Travel may be difficult at times.

* View the hazard area in detail at
http://weather.Gov/Medford/hazard

Precautionary/preparedness actions...

* slow down and allow extra time to reach your destination.

* Carry tire chains and be prepared for snow covered roads and
limited visibilities.

* See weather.Gov/Medford/cams for latest Road conditions.

* A Winter Weather Advisory for snow means that periods of snow
will cause travel difficulties.